GAOFEN 1-04 (43262 NORAD) Tracking and Keplerian Element Data

This shows tracking and keplerian element data for the satellite.

Feedback or suggestion? Click here.




ElementValue
Catalog43262
NameGAOFEN 1-04
Epoch Orbit437
Epoch Day119.82066582
Epoch Year2018
RAAN195.4892
Inclination98.0328
Eccentricity0.0005677
Argument of Perigee118.0616
Mean Anonmoly242.1154
Mean Motion14.75391872
Decay Rate5.2E-07
L11 43262U 18031D 18119.82066582 .00000052 00000-0 15172-4 0 9994
L22 43262 98.0328 195.4892 0005677 118.0616 242.1154 14.75391872 4375

Live tracking and technical data element details for GAOFEN 1-04 (NORAD 43262). GAOFEN 1-04 can be tracked NOW for your location showing map with azimuth and elevation plus other details from your city location.

Track the satellite on the map from your city or location and see movement details for azimuth, elevation, latitude, longitude, range, height, and movement on the map or in text.







IsCatalogInMostPopularTable: catalog: 43262, numindb: 66
Update: records affected: 1



GetName: 43262 GAOFEN 1-04

Hit Count: updated at: Tue, 20 Nov 2018 11:08:51 GMT